﻿_id,日時,平均風速(m/s),平均風向,最大瞬間風速(m/s),最大風速時風向,気温(℃),湿度(%),10分間移動積算雨量(mm),1時間移動積算雨量(mm),日雨量(mm),累計雨量(mm)
1,2022-04-18T00:00:00,0.3,北,0.7,北東,6.7,73.3,0,0,0,0
2,2022-04-18T00:01:00,0.3,北,0.9,北北東,6.7,73.6,0,0,0,0
3,2022-04-18T00:02:00,0.4,北,0.9,北北東,6.7,73.7,0,0,0,0
4,2022-04-18T00:03:00,0.4,北,0.9,北北東,6.9,73.6,0,0,0,0
5,2022-04-18T00:04:00,0.4,北,0.9,北北東,7,72.8,0,0,0,0
6,2022-04-18T00:05:00,0.4,北,0.9,北北東,7,72.2,0,0,0,0
7,2022-04-18T00:06:00,0.4,北,0.9,北北東,6.8,70.9,0,0,0,0
8,2022-04-18T00:07:00,0.4,北,0.9,北北東,6.7,70.9,0,0,0,0
9,2022-04-18T00:08:00,0.4,北,0.9,北北東,6.7,71.6,0,0,0,0
10,2022-04-18T00:09:00,0.4,北北東,0.9,北北東,6.8,72.3,0,0,0,0
11,2022-04-18T00:10:00,0.4,北北東,0.9,北北東,6.9,72.5,0,0,0,0
12,2022-04-18T00:11:00,0.4,北北東,0.9,北北東,6.9,72.3,0,0,0,0
13,2022-04-18T00:12:00,0.4,北北東,0.9,北北東,6.9,72,0,0,0,0
14,2022-04-18T00:13:00,0.3,北東,0.8,北東,7,72.1,0,0,0,0
15,2022-04-18T00:14:00,0.3,北東,0.6,北東,6.9,71.8,0,0,0,0
16,2022-04-18T00:15:00,0.3,北東,0.6,北東,6.7,71.3,0,0,0,0
17,2022-04-18T00:16:00,0.2,静穏,0.6,北東,6.6,71.3,0,0,0,0
18,2022-04-18T00:17:00,0.2,静穏,0.6,北東,6.6,72.2,0,0,0,0
19,2022-04-18T00:18:00,0.2,静穏,0.6,北東,6.6,72.7,0,0,0,0
20,2022-04-18T00:19:00,0.2,静穏,0.6,北東,6.6,72.9,0,0,0,0
21,2022-04-18T00:20:00,0.2,静穏,0.6,北東,6.5,73,0,0,0,0
22,2022-04-18T00:21:00,0.2,静穏,0.6,北東,6.4,73.2,0,0,0,0
23,2022-04-18T00:22:00,0.1,静穏,0.5,北東,6.4,73.9,0,0,0,0
24,2022-04-18T00:23:00,0.1,静穏,0.4,東,6.4,75.2,0,0,0,0
25,2022-04-18T00:24:00,0.1,静穏,0.4,東,6.3,75.4,0,0,0,0
26,2022-04-18T00:25:00,0.1,静穏,0.4,東,6.2,75.2,0,0,0,0
27,2022-04-18T00:26:00,0.1,静穏,0.4,東,6.2,75.7,0,0,0,0
28,2022-04-18T00:27:00,0.1,静穏,0.4,東,6.3,76.4,0,0,0,0
29,2022-04-18T00:28:00,0.1,静穏,0.3,北北東,6.2,76.6,0,0,0,0
30,2022-04-18T00:29:00,0.1,静穏,0.4,北,6.3,76.8,0,0,0,0
31,2022-04-18T00:30:00,0.1,静穏,0.4,北,6.4,77,0,0,0,0
32,2022-04-18T00:31:00,0.2,静穏,0.5,北,6.5,77,0,0,0,0
33,2022-04-18T00:32:00,0.2,静穏,0.6,北,6.4,75.9,0,0,0,0
34,2022-04-18T00:33:00,0.2,静穏,0.6,北,6.4,75.6,0,0,0,0
35,2022-04-18T00:34:00,0.3,北,0.6,北,6.6,75.8,0,0,0,0
36,2022-04-18T00:35:00,0.3,北,0.6,北,6.6,75.3,0,0,0,0
37,2022-04-18T00:36:00,0.4,北,0.6,北,6.6,74.8,0,0,0,0
38,2022-04-18T00:37:00,0.4,北,0.6,北,6.7,74.7,0,0,0,0
39,2022-04-18T00:38:00,0.4,北北東,0.6,北,6.6,73.9,0,0,0,0
40,2022-04-18T00:39:00,0.4,北北東,0.6,北,6.3,73.2,0,0,0,0
41,2022-04-18T00:40:00,0.3,北,0.6,北,6.2,73.2,0,0,0,0
42,2022-04-18T00:41:00,0.3,北,0.6,北,6.2,74.4,0,0,0,0
43,2022-04-18T00:42:00,0.3,北,0.6,北北東,6.2,75.5,0,0,0,0
44,2022-04-18T00:43:00,0.3,北,0.9,北北西,6.1,75.6,0,0,0,0
45,2022-04-18T00:44:00,0.3,北,0.9,北北西,6.2,76.2,0,0,0,0
46,2022-04-18T00:45:00,0.3,北,0.9,北北西,6.1,76.4,0,0,0,0
47,2022-04-18T00:46:00,0.3,北北西,0.9,北北西,6.2,77.4,0,0,0,0
48,2022-04-18T00:47:00,0.2,静穏,0.9,北北西,6.2,76.8,0,0,0,0
49,2022-04-18T00:48:00,0.2,静穏,0.9,北北西,6.2,76.9,0,0,0,0
50,2022-04-18T00:49:00,0.2,静穏,0.9,北北西,6.3,77,0,0,0,0
51,2022-04-18T00:50:00,0.2,静穏,0.9,北北西,6.3,75.9,0,0,0,0
52,2022-04-18T00:51:00,0.2,静穏,0.9,北北西,6.5,75.9,0,0,0,0
53,2022-04-18T00:52:00,0.2,静穏,0.9,北北西,6.6,75.6,0,0,0,0
54,2022-04-18T00:53:00,0.2,静穏,0.8,西北西,6.6,74.8,0,0,0,0
55,2022-04-18T00:54:00,0.1,静穏,0.4,北北東,6.3,73.8,0,0,0,0
56,2022-04-18T00:55:00,0.1,静穏,0.5,東,6.4,74.2,0,0,0,0
57,2022-04-18T00:56:00,0.2,静穏,0.7,東北東,6.4,74.6,0,0,0,0
58,2022-04-18T00:57:00,0.2,静穏,0.7,東北東,6.4,74.9,0,0,0,0
59,2022-04-18T00:58:00,0.3,北東,0.9,東北東,6.3,74.5,0,0,0,0
60,2022-04-18T00:59:00,0.4,北東,0.9,東北東,6.5,75.3,0,0,0,0
61,2022-04-18T01:00:00,0.4,北東,1,東,6.5,75.4,0,0,0,0
62,2022-04-18T01:01:00,0.5,東北東,1.1,東,6.5,75.3,0,0,0,0
63,2022-04-18T01:02:00,0.6,東北東,1.1,東,6.4,75.4,0,0,0,0
64,2022-04-18T01:03:00,0.6,東北東,1.1,東,6.2,75.5,0,0,0,0
65,2022-04-18T01:04:00,0.7,東,1.1,東,6.2,75.8,0,0,0,0
66,2022-04-18T01:05:00,0.7,東,1.1,東,6.1,76.3,0,0,0,0
67,2022-04-18T01:06:00,0.7,東,1.1,東,6.3,77.3,0,0,0,0
68,2022-04-18T01:07:00,0.8,東,1.2,東南東,6.2,77.2,0,0,0,0
69,2022-04-18T01:08:00,0.8,東南東,1.5,東,6.1,76.8,0,0,0,0
70,2022-04-18T01:09:00,0.8,東南東,1.5,東,6.1,76.5,0,0,0,0
71,2022-04-18T01:10:00,0.8,東南東,1.5,東,6.2,76.1,0,0,0,0
72,2022-04-18T01:11:00,0.7,東南東,1.5,東,6.1,75.6,0,0,0,0
73,2022-04-18T01:12:00,0.7,東南東,1.5,東,6.3,75.8,0,0,0,0
74,2022-04-18T01:13:00,0.7,東南東,1.5,東,6.3,75.6,0,0,0,0
75,2022-04-18T01:14:00,0.8,東南東,1.5,東,6.3,74.6,0,0,0,0
76,2022-04-18T01:15:00,0.8,東南東,1.5,東,6.2,74.1,0,0,0,0
77,2022-04-18T01:16:00,0.8,東南東,1.5,東,6.2,74,0,0,0,0
78,2022-04-18T01:17:00,0.7,東南東,1.5,東,6.1,74.4,0,0,0,0
79,2022-04-18T01:18:00,0.7,東南東,1.3,東,6,74.1,0,0,0,0
80,2022-04-18T01:19:00,0.7,東,1.3,東,6,74.7,0,0,0,0
81,2022-04-18T01:20:00,0.6,東,1.3,東,6.1,75.5,0,0,0,0
82,2022-04-18T01:21:00,0.6,東,1.3,東,6,75.6,0,0,0,0
83,2022-04-18T01:22:00,0.6,東,1.3,東,6,75.5,0,0,0,0
84,2022-04-18T01:23:00,0.6,東,1.3,東,6.1,75.7,0,0,0,0
85,2022-04-18T01:24:00,0.6,東,1.1,東,6.1,76,0,0,0,0
86,2022-04-18T01:25:00,0.6,東,1.5,東,6.2,76.1,0,0,0,0
87,2022-04-18T01:26:00,0.6,東,1.5,東,6.1,75.4,0,0,0,0
88,2022-04-18T01:27:00,0.7,東,1.5,東,6,74.9,0,0,0,0
89,2022-04-18T01:28:00,0.7,東,1.5,東,6,74.7,0,0,0,0
90,2022-04-18T01:29:00,0.7,東,1.5,東,5.9,75.2,0,0,0,0
91,2022-04-18T01:30:00,0.7,東,1.5,東,6,75.9,0,0,0,0
92,2022-04-18T01:31:00,0.8,東,1.5,東,6.1,76.4,0,0,0,0
93,2022-04-18T01:32:00,0.8,東,1.5,東,6.2,76.7,0,0,0,0
94,2022-04-18T01:33:00,0.7,東,1.5,東,6.2,76.6,0,0,0,0
95,2022-04-18T01:34:00,0.6,東,1.5,東,6.3,76.5,0,0,0,0
96,2022-04-18T01:35:00,0.5,東,1.2,東,6.1,76.2,0,0,0,0
97,2022-04-18T01:36:00,0.5,東北東,1.1,東南東,6.2,76.3,0,0,0,0
98,2022-04-18T01:37:00,0.4,東北東,1,東,6.2,77.1,0,0,0,0
99,2022-04-18T01:38:00,0.4,東北東,1,東,6.2,77,0,0,0,0
100,2022-04-18T01:39:00,0.4,東北東,0.9,東北東,6,76.7,0,0,0,0
101,2022-04-18T01:40:00,0.3,東北東,0.9,東北東,6.1,77.3,0,0,0,0
102,2022-04-18T01:41:00,0.3,東北東,0.9,東北東,6.2,77.8,0,0,0,0
103,2022-04-18T01:42:00,0.2,静穏,0.5,北東,6.2,77.9,0,0,0,0
104,2022-04-18T01:43:00,0.2,静穏,0.5,北東,6,77.1,0,0,0,0
105,2022-04-18T01:44:00,0.2,静穏,0.5,北東,6,77.1,0,0,0,0
106,2022-04-18T01:45:00,0.2,静穏,0.5,北東,6,77.4,0,0,0,0
107,2022-04-18T01:46:00,0.2,静穏,0.5,北東,6,77.7,0,0,0,0
108,2022-04-18T01:47:00,0.2,静穏,0.5,北東,5.8,77.6,0,0,0,0
109,2022-04-18T01:48:00,0.3,東,0.7,南東,5.8,77.6,0,0,0,0
110,2022-04-18T01:49:00,0.3,東,0.7,南東,5.9,78.6,0,0,0,0
111,2022-04-18T01:50:00,0.3,東,0.7,南東,5.8,78.7,0,0,0,0
112,2022-04-18T01:51:00,0.3,東,0.8,東,5.9,78.9,0,0,0,0
113,2022-04-18T01:52:00,0.4,東南東,1.2,東北東,6,79.2,0,0,0,0
114,2022-04-18T01:53:00,0.5,東南東,1.2,東北東,6.1,79.4,0,0,0,0
115,2022-04-18T01:54:00,0.6,東南東,1.4,東,6.1,79,0,0,0,0
116,2022-04-18T01:55:00,0.6,東,1.4,東,6,78.4,0,0,0,0
117,2022-04-18T01:56:00,0.7,東,1.4,東,6.1,78.1,0,0,0,0
118,2022-04-18T01:57:00,0.7,東,1.4,東,6,77.9,0,0,0,0
119,2022-04-18T01:58:00,0.6,東北東,1.4,東,5.9,77.5,0,0,0,0
120,2022-04-18T01:59:00,0.6,東北東,1.4,東,5.8,77.7,0,0,0,0
121,2022-04-18T02:00:00,0.6,東北東,1.4,東,5.8,78.5,0,0,0,0
122,2022-04-18T02:01:00,0.5,東北東,1.4,東,5.9,79,0,0,0,0
123,2022-04-18T02:02:00,0.5,東北東,1.4,東,5.8,79,0,0,0,0
124,2022-04-18T02:03:00,0.4,東北東,1.4,東,5.7,78.8,0,0,0,0
125,2022-04-18T02:04:00,0.3,東北東,1.1,東,5.7,78.8,0,0,0,0
126,2022-04-18T02:05:00,0.3,東北東,0.9,東,5.9,79.8,0,0,0,0
127,2022-04-18T02:06:00,0.3,東北東,0.7,東,6.1,80.5,0,0,0,0
128,2022-04-18T02:07:00,0.3,東北東,0.9,東北東,5.9,79.8,0,0,0,0
129,2022-04-18T02:08:00,0.4,東北東,1,東北東,6,79.6,0,0,0,0
130,2022-04-18T02:09:00,0.4,東北東,1,東北東,5.9,79.9,0,0,0,0
131,2022-04-18T02:10:00,0.5,東北東,1,東北東,5.9,79.3,0,0,0,0
132,2022-04-18T02:11:00,0.5,東北東,1,東北東,5.8,78.9,0,0,0,0
133,2022-04-18T02:12:00,0.5,東北東,1,東北東,5.8,79.2,0,0,0,0
134,2022-04-18T02:13:00,0.5,東,1,東北東,5.6,79,0,0,0,0
135,2022-04-18T02:14:00,0.4,東,1,東北東,5.5,78.5,0,0,0,0
136,2022-04-18T02:15:00,0.4,東,1,東北東,5.4,78.9,0,0,0,0
137,2022-04-18T02:16:00,0.3,東,1,東北東,5.4,79.7,0,0,0,0
138,2022-04-18T02:17:00,0.3,東南東,1,東北東,5.4,80.4,0,0,0,0
139,2022-04-18T02:18:00,0.2,静穏,0.9,東北東,5.4,80.7,0,0,0,0
140,2022-04-18T02:19:00,0.2,静穏,0.7,東,5.3,80.9,0,0,0,0
141,2022-04-18T02:20:00,0.1,静穏,0.5,東南東,5.5,82.2,0,0,0,0
142,2022-04-18T02:21:00,0.2,静穏,0.6,東,5.5,82.3,0,0,0,0
143,2022-04-18T02:22:00,0.2,静穏,0.6,東,5.5,82.1,0,0,0,0
144,2022-04-18T02:23:00,0.2,静穏,0.6,東,5.5,82,0,0,0,0
145,2022-04-18T02:24:00,0.2,静穏,0.6,東,5.4,81.7,0,0,0,0
146,2022-04-18T02:25:00,0.2,静穏,0.6,東,5.4,81.6,0,0,0,0
147,2022-04-18T02:26:00,0.2,静穏,0.6,東,5.4,81.7,0,0,0,0
148,2022-04-18T02:27:00,0.2,静穏,0.6,東,5.6,82.9,0,0,0,0
149,2022-04-18T02:28:00,0.2,静穏,0.6,東,5.6,83,0,0,0,0
150,2022-04-18T02:29:00,0.2,静穏,0.6,東,5.5,82.7,0,0,0,0
151,2022-04-18T02:30:00,0.1,静穏,0.6,東,5.4,82.6,0,0,0,0
152,2022-04-18T02:31:00,0.1,静穏,0.5,東,5.4,82.8,0,0,0,0
153,2022-04-18T02:32:00,0.1,静穏,0.3,東南東,5.4,83,0,0,0,0
154,2022-04-18T02:33:00,0.1,静穏,0.4,北,5.3,82.9,0,0,0,0
155,2022-04-18T02:34:00,0.1,静穏,0.4,北,5.3,83.5,0,0,0,0
156,2022-04-18T02:35:00,0.1,静穏,0.4,北,5.3,84,0,0,0,0
157,2022-04-18T02:36:00,0.1,静穏,0.4,北,5.5,84.5,0,0,0,0
158,2022-04-18T02:37:00,0.1,静穏,0.4,北,5.6,85.2,0,0,0,0
159,2022-04-18T02:38:00,0.1,静穏,0.4,北,5.5,84.2,0,0,0,0
160,2022-04-18T02:39:00,0.1,静穏,0.4,北,5.6,83.9,0,0,0,0
161,2022-04-18T02:40:00,0.1,静穏,0.4,北,5.7,84.1,0,0,0,0
162,2022-04-18T02:41:00,0.1,静穏,0.4,北,5.7,83.6,0,0,0,0
163,2022-04-18T02:42:00,0.1,静穏,0.4,北,5.4,82.1,0,0,0,0
164,2022-04-18T02:43:00,0.1,静穏,0.3,東北東,5.3,81.7,0,0,0,0
165,2022-04-18T02:44:00,0.1,静穏,0.3,東北東,5.4,82.7,0,0,0,0
166,2022-04-18T02:45:00,0.1,静穏,0.3,東北東,5.5,83.3,0,0,0,0
167,2022-04-18T02:46:00,0,静穏,0.3,東北東,5.4,83.1,0,0,0,0
168,2022-04-18T02:47:00,0.1,静穏,0.3,東北東,5.5,83.6,0,0,0,0
169,2022-04-18T02:48:00,0.1,静穏,0.5,東,5.6,83.8,0,0,0,0
170,2022-04-18T02:49:00,0.1,静穏,0.5,東,5.5,83.3,0,0,0,0
171,2022-04-18T02:50:00,0.1,静穏,0.5,東,5.4,82.9,0,0,0,0
172,2022-04-18T02:51:00,0.1,静穏,0.5,東,5.4,83.2,0,0,0,0
173,2022-04-18T02:52:00,0.1,静穏,0.5,東,5.6,84,0,0,0,0
174,2022-04-18T02:53:00,0.2,静穏,0.7,東北東,5.7,84.1,0,0,0,0
175,2022-04-18T02:54:00,0.2,静穏,1.2,東,5.8,83.8,0,0,0,0
176,2022-04-18T02:55:00,0.4,東北東,1.2,東,5.9,83.8,0,0,0,0
177,2022-04-18T02:56:00,0.4,東北東,1.2,東,5.9,83,0,0,0,0
178,2022-04-18T02:57:00,0.5,北東,1.2,東,5.8,82.7,0,0,0,0
179,2022-04-18T02:58:00,0.5,北東,1.2,東,5.9,82.5,0,0,0,0
180,2022-04-18T02:59:00,0.6,北東,1.2,東,5.9,82.3,0,0,0,0
181,2022-04-18T03:00:00,0.6,北東,1.2,東,5.8,82.1,0,0,0,0
182,2022-04-18T03:01:00,0.5,北東,1.2,東,5.7,81.7,0,0,0,0
183,2022-04-18T03:02:00,0.6,東北東,1.2,東,5.5,80.8,0,0,0,0
184,2022-04-18T03:03:00,0.6,東北東,1.2,東,5.3,80.9,0,0,0,0
185,2022-04-18T03:04:00,0.5,東北東,1.2,東北東,5.2,81.7,0,0,0,0
186,2022-04-18T03:05:00,0.5,東北東,1.1,北東,5.2,82.8,0,0,0,0
187,2022-04-18T03:06:00,0.4,南南東,1.1,北東,5.2,83.8,0,0,0,0
188,2022-04-18T03:07:00,0.3,南南西,0.7,東北東,5.3,84.4,0,0,0,0
189,2022-04-18T03:08:00,0.3,南西,0.6,南西,5.4,85.3,0,0,0,0
190,2022-04-18T03:09:00,0.3,南西,0.6,南西,5.3,85.1,0,0,0,0
191,2022-04-18T03:10:00,0.3,南西,0.6,南西,5.3,85.4,0,0,0,0
192,2022-04-18T03:11:00,0.3,南西,0.6,南西,5.5,86,0,0,0,0
193,2022-04-18T03:12:00,0.3,南西,0.6,南西,5.5,86.3,0,0,0,0
194,2022-04-18T03:13:00,0.3,西南西,0.6,南西,5.3,85.6,0,0,0,0
195,2022-04-18T03:14:00,0.3,西南西,0.6,南西,5.5,85.8,0,0,0,0
196,2022-04-18T03:15:00,0.3,西南西,0.6,北,5.4,85.5,0,0,0,0
197,2022-04-18T03:16:00,0.3,西,0.6,北,5.4,85,0,0,0,0
198,2022-04-18T03:17:00,0.3,西北西,0.6,北,5.3,84.3,0,0,0,0
199,2022-04-18T03:18:00,0.3,北西,0.7,北西,5.1,83.3,0,0,0,0
200,2022-04-18T03:19:00,0.4,北西,0.7,北西,5.2,83.3,0,0,0,0
201,2022-04-18T03:20:00,0.3,北西,0.7,北西,5.2,83.9,0,0,0,0
202,2022-04-18T03:21:00,0.3,北北西,0.7,北西,5.2,84.3,0,0,0,0
203,2022-04-18T03:22:00,0.3,北北西,0.7,北西,5,83.7,0,0,0,0
204,2022-04-18T03:23:00,0.3,北西,0.7,北西,5,83.8,0,0,0,0
205,2022-04-18T03:24:00,0.3,北西,0.7,北西,5,84,0,0,0,0
206,2022-04-18T03:25:00,0.3,北西,0.7,北西,5.1,84.7,0,0,0,0
207,2022-04-18T03:26:00,0.2,静穏,0.7,北西,5.2,85.1,0,0,0,0
208,2022-04-18T03:27:00,0.3,西北西,0.7,北西,5.2,84.7,0,0,0,0
209,2022-04-18T03:28:00,0.3,西北西,0.7,北西,5.2,84.6,0,0,0,0
210,2022-04-18T03:29:00,0.2,静穏,0.5,西,5.2,84.5,0,0,0,0
211,2022-04-18T03:30:00,0.2,静穏,0.5,西,5.3,84.9,0,0,0,0
212,2022-04-18T03:31:00,0.2,静穏,0.5,西,5.2,84.7,0,0,0,0
213,2022-04-18T03:32:00,0.2,静穏,0.5,西,5.2,84.4,0,0,0,0
214,2022-04-18T03:33:00,0.2,静穏,0.5,西,5.2,84.7,0,0,0,0
215,2022-04-18T03:34:00,0.2,静穏,0.5,西,5.2,84.7,0,0,0,0
216,2022-04-18T03:35:00,0.2,静穏,0.5,西,5.2,84.8,0,0,0,0
217,2022-04-18T03:36:00,0.3,西北西,0.7,北西,5.3,85.2,0,0,0,0
218,2022-04-18T03:37:00,0.2,静穏,0.7,北西,5.3,85.8,0,0,0,0
219,2022-04-18T03:38:00,0.2,静穏,0.7,北西,5.1,85.1,0,0,0,0
220,2022-04-18T03:39:00,0.2,静穏,0.7,北西,5.2,85.4,0,0,0,0
221,2022-04-18T03:40:00,0.3,北北西,0.7,北西,5.4,86.1,0,0,0,0
222,2022-04-18T03:41:00,0.3,北北西,0.7,北西,5.5,86.4,0,0,0,0
223,2022-04-18T03:42:00,0.3,北,0.7,北西,5.4,86,0,0,0,0
224,2022-04-18T03:43:00,0.3,北,0.7,北西,5.4,85.4,0,0,0,0
225,2022-04-18T03:44:00,0.4,北北東,1,東北東,5.3,84.3,0,0,0,0
226,2022-04-18T03:45:00,0.4,北北東,1.2,東,5.4,84.7,0,0,0,0
227,2022-04-18T03:46:00,0.5,北東,1.3,東南東,5.5,84.9,0,0,0,0
228,2022-04-18T03:47:00,0.6,北東,1.3,東南東,5.5,84.5,0,0,0,0
229,2022-04-18T03:48:00,0.6,北東,1.4,東,5.5,84.3,0,0,0,0
230,2022-04-18T03:49:00,0.7,東北東,1.4,東,5.3,83.8,0,0,0,0
231,2022-04-18T03:50:00,0.8,東北東,1.4,東,5.3,83.3,0,0,0,0
232,2022-04-18T03:51:00,0.7,東,1.4,東,5.1,83.4,0,0,0,0
233,2022-04-18T03:52:00,0.8,東,1.4,東,5,83.3,0,0,0,0
234,2022-04-18T03:53:00,0.7,東,1.4,東,5,83.7,0,0,0,0
235,2022-04-18T03:54:00,0.7,東,1.4,東,5.2,85.1,0,0,0,0
236,2022-04-18T03:55:00,0.6,東,1.4,東,5.2,85.6,0,0,0,0
237,2022-04-18T03:56:00,0.5,東,1.4,東,5.2,85.4,0,0,0,0
238,2022-04-18T03:57:00,0.4,東,1.4,東,5.1,85.1,0,0,0,0
239,2022-04-18T03:58:00,0.4,東,1.4,東南東,5.1,85.2,0,0,0,0
240,2022-04-18T03:59:00,0.3,東,1.1,東南東,5.2,85.5,0,0,0,0
241,2022-04-18T04:00:00,0.3,東,1,東,5,85.6,0,0,0,0
242,2022-04-18T04:01:00,0.3,東,1,東,5.1,85.4,0,0,0,0
243,2022-04-18T04:02:00,0.3,東北東,1,東,5.3,86.5,0,0,0,0
244,2022-04-18T04:03:00,0.4,東北東,1.1,北東,5.3,86.2,0,0,0,0
245,2022-04-18T04:04:00,0.4,東北東,1.1,北東,5.4,86.4,0,0,0,0
246,2022-04-18T04:05:00,0.5,東北東,1.1,北東,5.4,86.1,0,0,0,0
247,2022-04-18T04:06:00,0.5,東北東,1.1,北東,5.3,85.1,0,0,0,0
248,2022-04-18T04:07:00,0.5,東北東,1.1,北東,5.4,84.7,0,0,0,0
249,2022-04-18T04:08:00,0.5,東北東,1.1,北東,5.3,84.6,0,0,0,0
250,2022-04-18T04:09:00,0.5,東北東,1.1,北東,5.1,83.7,0,0,0,0
